| time (UTC) | temp C | wind direction | speed KPH | gust KPH | rain 1hr cm | rain 24hr cm | rain mn cm | humidity % | barometer mb |
| 20260504215004 | 14 | 330 | 3.2 | 8.0 | 0.00 | 1.17 | 0.00 | 93 | 1009.0 |
| 20260504214504 | 14 | 340 | 3.2 | 8.0 | 0.00 | 1.17 | 0.00 | 93 | 1009.0 |
| 20260504214004 | 14 | 334 | 3.2 | 8.0 | 0.00 | 1.17 | 0.00 | 93 | 1009.0 |
| 20260504213504 | 14 | 316 | 3.2 | 9.7 | 0.00 | 1.17 | 0.00 | 92 | 1008.9 |
| 20260504213004 | 14 | 330 | 3.2 | 8.0 | 0.00 | 1.17 | 0.00 | 92 | 1009.3 |
| 20260504212504 | 14 | 332 | 3.2 | 4.8 | 0.00 | 1.17 | 0.00 | 92 | 1009.1 |
| 20260504212005 | 14 | 329 | 1.6 | 8.0 | 0.00 | 1.17 | 0.00 | 92 | 1009.0 |
| 20260504211004 | 14 | 334 | 3.2 | 8.0 | 0.00 | 1.17 | 0.00 | 92 | 1009.3 |
| 20260504210504 | 14 | 341 | 1.6 | 8.0 | 0.00 | 1.17 | 0.00 | 92 | 1009.1 |
| 20260504210004 | 14 | 341 | 3.2 | 8.0 | 0.00 | 1.17 | 0.00 | 92 | 1009.0 |
| 20260504205504 | 14 | 338 | 3.2 | 8.0 | 0.00 | 1.17 | 0.00 | 91 | 1009.2 |
| 20260504204504 | 14 | 327 | 3.2 | 9.7 | 0.00 | 1.17 | 0.00 | 91 | 1009.1 |
| 20260504204004 | 14 | 324 | 3.2 | 9.7 | 0.00 | 1.17 | 0.00 | 91 | 1009.1 |
| 20260504203504 | 14 | 326 | 3.2 | 9.7 | 0.00 | 1.17 | 0.00 | 91 | 1009.3 |
| 20260504203004 | 14 | 332 | 4.8 | 9.7 | 0.00 | 1.17 | 0.00 | 91 | 1009.3 |
| 20260504202504 | 14 | 331 | 3.2 | 8.0 | 0.00 | 1.17 | 0.00 | 91 | 1009.1 |
| 20260504202004 | 14 | 345 | 3.2 | 8.0 | 0.00 | 1.17 | 0.00 | 90 | 1009.3 |
| 20260504201506 | 14 | 341 | 1.6 | 8.0 | 0.00 | 1.17 | 0.00 | 90 | 1009.3 |
| 20260504200006 | 14 | 338 | 3.2 | 9.7 | 0.00 | 1.17 | 0.00 | 89 | 1009.0 |
| 20260504195505 | 14 | 326 | 3.2 | 9.7 | 0.00 | 1.17 | 0.00 | 89 | 1008.9 |
| 20260504195006 | 14 | 332 | 3.2 | 8.0 | 0.00 | 1.17 | 0.00 | 88 | 1008.9 |
| 20260504194006 | 15 | 345 | 3.2 | 11.3 | 0.00 | 1.17 | 0.00 | 87 | 1008.7 |
| 20260504193505 | 15 | 352 | 3.2 | 11.3 | 0.00 | 1.17 | 0.00 | 87 | 1008.7 |
| 20260504192006 | 15 | 3 | 4.8 | 14.5 | 0.00 | 1.17 | 0.00 | 85 | 1008.9 |
| 20260504191506 | 15 | 348 | 4.8 | 11.3 | 0.00 | 1.17 | 0.00 | 85 | 1008.5 |
| 20260504191005 | 15 | 1 | 1.6 | 11.3 | 0.00 | 1.17 | 0.00 | 84 | 1008.8 |
| 20260504190006 | 15 | 357 | 4.8 | 12.9 | 0.00 | 1.17 | 0.00 | 84 | 1008.7 |
| 20260504185506 | 15 | 341 | 4.8 | 11.3 | 0.00 | 1.17 | 0.00 | 85 | 1008.5 |
| 20260504185006 | 15 | 353 | 4.8 | 12.9 | 0.00 | 1.17 | 0.00 | 86 | 1008.5 |
| 20260504184507 | 15 | 346 | 4.8 | 11.3 | 0.00 | 1.17 | 0.00 | 87 | 1009.0 |
| 20260504184006 | 15 | 1 | 3.2 | 9.7 | 0.00 | 1.17 | 0.00 | 87 | 1008.7 |
| 20260504183506 | 15 | 335 | 3.2 | 8.0 | 0.00 | 1.17 | 0.00 | 87 | 1008.9 |
| 20260504183006 | 15 | 342 | 3.2 | 9.7 | 0.00 | 1.17 | 0.00 | 87 | 1009.0 |
| 20260504182008 | 15 | 333 | 4.8 | 11.3 | 0.00 | 1.17 | 0.00 | 87 | 1008.8 |
| 20260504181506 | 15 | 333 | 4.8 | 11.3 | 0.00 | 1.17 | 0.00 | 87 | 1008.8 |
| 20260504181005 | 15 | 331 | 3.2 | 8.0 | 0.00 | 1.17 | 0.00 | 88 | 1008.8 |
| 20260504180505 | 15 | 331 | 3.2 | 11.3 | 0.00 | 1.17 | 0.00 | 88 | 1009.0 |
| 20260504180006 | 15 | 357 | 4.8 | 12.9 | 0.00 | 1.17 | 0.00 | 88 | 1008.9 |
| 20260504175505 | 15 | 339 | 4.8 | 12.9 | 0.00 | 1.17 | 0.00 | 88 | 1008.8 |
| 20260504175006 | 15 | 1 | 3.2 | 12.9 | 0.00 | 1.17 | 0.00 | 88 | 1008.9 |
| 20260504174505 | 15 | 351 | 8.0 | 12.9 | 0.00 | 1.17 | 0.00 | 87 | 1008.9 |
| 20260504174005 | 15 | 12 | 8.0 | 14.5 | 0.00 | 1.17 | 0.00 | 87 | 1008.9 |
| 20260504173506 | 15 | 14 | 4.8 | 11.3 | 0.00 | 1.17 | 0.00 | 86 | 1008.9 |
| 20260504173005 | 15 | 356 | 1.6 | 11.3 | 0.00 | 1.17 | 0.00 | 86 | 1009.0 |
| 20260504172505 | 15 | 358 | 3.2 | 14.5 | 0.00 | 1.17 | 0.00 | 86 | 1008.9 |
| 20260504171506 | 16 | 10 | 6.4 | 14.5 | 0.00 | 1.17 | 0.00 | 84 | 1009.0 |
| 20260504170505 | 16 | 2 | 8.0 | 16.1 | 0.00 | 1.17 | 0.00 | 80 | 1009.0 |
| 20260504151006 | 17 | 326 | 8.0 | 16.1 | 0.00 | 1.19 | 0.00 | 73 | 1008.7 |
| 20260504150506 | 17 | 297 | 4.8 | 14.5 | 0.00 | 1.19 | 0.00 | 72 | 1008.8 |
| 20260504141006 | 17 | 344 | 6.4 | 19.3 | 0.00 | 1.37 | 0.00 | 69 | 1009.4 |
| 20260504140505 | 17 | 339 | 6.4 | 16.1 | 0.00 | 1.37 | 0.00 | 68 | 1009.5 |
| 20260504130505 | 15 | 294 | 9.7 | 16.1 | 0.00 | 1.88 | 0.00 | 78 | 1009.7 |
| 20260504110505 | 17 | 319 | 3.2 | 11.3 | 0.00 | 1.88 | 0.00 | 70 | 1009.7 |
| 20260504082006 | 14 | 306 | 3.2 | 8.0 | 0.00 | 1.88 | 0.00 | 88 | 1010.0 |
| 20260504081505 | 13 | 296 | 4.8 | 9.7 | 0.00 | 1.88 | 0.00 | 88 | 1009.7 |
| 20260504081006 | 13 | 272 | 4.8 | 8.0 | 0.00 | 1.88 | 0.00 | 89 | 1009.9 |
| 20260504080505 | 13 | 276 | 1.6 | 8.0 | 0.00 | 1.91 | 0.00 | 90 | 1009.8 |
| 20260504050504 | 10 | 104 | 0.0 | 1.6 | 0.00 | 2.29 | 0.00 | 99 | 1009.2 |
| 20260504050005 | 10 | 199 | 0.0 | 3.2 | 0.00 | 2.29 | 0.00 | 99 | 1009.3 |
| 20260504045505 | 10 | 320 | 1.6 | 3.2 | 0.00 | 2.29 | 0.00 | 99 | 1009.1 |
| 20260504045005 | 10 | 313 | 1.6 | 3.2 | 0.00 | 2.29 | 0.00 | 99 | 1009.1 |
| 20260504044504 | 10 | 313 | 1.6 | 3.2 | 0.00 | 2.29 | 0.00 | 99 | 1009.1 |
| 20260504044005 | 10 | 281 | 0.0 | 3.2 | 0.00 | 2.29 | 0.00 | 99 | 1009.3 |
| 20260504043005 | 10 | 300 | 0.0 | 1.6 | 0.00 | 2.29 | 0.00 | 99 | 1009.2 |
| 20260504042505 | 10 | 335 | 1.6 | 3.2 | 0.00 | 2.29 | 0.00 | 99 | 1009.2 |
| 20260504042005 | 10 | 272 | 1.6 | 3.2 | 0.00 | 2.29 | 0.00 | 99 | 1009.3 |
| 20260504041005 | 10 | 10 | 0.0 | 1.6 | 0.00 | 2.29 | 0.00 | 99 | 1009.4 |
| 20260504040504 | 10 | 176 | 0.0 | 3.2 | 0.00 | 2.29 | 0.00 | 99 | 1009.4 |
| 20260504040005 | 10 | 133 | 1.6 | 4.8 | 0.00 | 2.29 | 0.00 | 99 | 1009.3 |
| 20260504035505 | 10 | 95 | 3.2 | 4.8 | 0.00 | 2.29 | 0.00 | 99 | 1009.4 |
| 20260504034505 | 10 | 335 | 1.6 | 3.2 | 0.00 | 2.29 | 0.00 | 99 | 1009.5 |
| 20260504034005 | 10 | 84 | 0.0 | 3.2 | 0.00 | 2.29 | 0.00 | 99 | 1009.6 |
| 20260504033505 | 10 | 3 | 1.6 | 3.2 | 0.00 | 2.29 | 0.00 | 98 | 1009.5 |
| 20260504033005 | 10 | 124 | 1.6 | 3.2 | 0.00 | 2.29 | 0.00 | 98 | 1009.5 |
| 20260504032505 | 10 | 223 | 0.0 | 3.2 | 0.00 | 2.29 | 0.00 | 98 | 1009.3 |
| 20260504032005 | 10 | 23 | 0.0 | 1.6 | 0.00 | 2.29 | 0.00 | 98 | 1009.6 |
| 20260504031005 | 10 | 148 | 0.0 | 1.6 | 0.00 | 2.29 | 0.00 | 98 | 1009.5 |
| 20260504030505 | 10 | 333 | 0.0 | 3.2 | 0.00 | 2.29 | 0.00 | 98 | 1009.5 |
| 20260504030005 | 10 | 8 | 1.6 | 3.2 | 0.00 | 2.29 | 0.00 | 98 | 1009.3 |
| 20260504025505 | 10 | 20 | 0.0 | 1.6 | 0.00 | 2.29 | 0.00 | 97 | 1009.4 |
| 20260504025005 | 10 | 326 | 1.6 | 3.2 | 0.00 | 2.29 | 0.00 | 97 | 1009.6 |
| 20260504023504 | 11 | 302 | 0.0 | 3.2 | 0.00 | 2.29 | 0.00 | 97 | 1009.4 |
| 20260504023005 | 11 | 328 | 1.6 | 4.8 | 0.00 | 2.29 | 0.00 | 97 | 1009.5 |
| 20260504022504 | 11 | 309 | 1.6 | 4.8 | 0.00 | 2.29 | 0.00 | 97 | 1009.3 |
| 20260504022005 | 11 | 328 | 1.6 | 3.2 | 0.00 | 2.29 | 0.00 | 96 | 1009.3 |
| 20260504021005 | 11 | 224 | 0.0 | 3.2 | 0.00 | 2.29 | 0.00 | 96 | 1009.4 |
| 20260504020504 | 11 | 232 | 1.6 | 3.2 | 0.00 | 2.29 | 0.00 | 96 | 1009.5 |
| 20260504015504 | 11 | 153 | 1.6 | 3.2 | 0.00 | 2.29 | 0.00 | 95 | 1009.3 |
| 20260504015005 | 11 | 219 | 0.0 | 3.2 | 0.00 | 2.29 | 0.00 | 94 | 1009.2 |
| 20260504014505 | 11 | 261 | 0.0 | 4.8 | 0.00 | 2.29 | 0.00 | 94 | 1009.4 |
| 20260504014004 | 11 | 281 | 0.0 | 3.2 | 0.00 | 2.31 | 0.00 | 93 | 1009.3 |
| 20260504013504 | 11 | 253 | 1.6 | 3.2 | 0.00 | 2.31 | 0.00 | 93 | 1009.5 |
| 20260504013005 | 12 | 262 | 1.6 | 3.2 | 0.00 | 2.31 | 0.00 | 93 | 1009.5 |
| 20260504012505 | 11 | 250 | 0.0 | 3.2 | 0.00 | 2.31 | 0.00 | 93 | 1009.6 |
| 20260504012005 | 12 | 317 | 1.6 | 4.8 | 0.00 | 2.31 | 0.00 | 93 | 1009.5 |
| 20260504011504 | 12 | 330 | 1.6 | 3.2 | 0.00 | 2.31 | 0.00 | 93 | 1009.6 |
| 20260504011004 | 12 | 272 | 1.6 | 4.8 | 0.00 | 2.31 | 0.00 | 93 | 1009.5 |
| 20260504010505 | 12 | 292 | 1.6 | 4.8 | 0.00 | 2.31 | 0.00 | 92 | 1009.6 |
| 20260504005504 | 12 | 283 | 1.6 | 4.8 | 0.00 | 2.34 | 0.00 | 92 | 1009.6 |
| 20260504005004 | 12 | 294 | 1.6 | 4.8 | 0.00 | 2.34 | 0.00 | 92 | 1009.6 |
| 20260504004004 | 12 | 144 | 0.0 | 1.6 | 0.00 | 2.34 | 0.00 | 92 | 1009.7 |
| 20260504003504 | 12 | 122 | 0.0 | 1.6 | 0.00 | 2.34 | 0.00 | 92 | 1009.7 |
| 20260504002005 | 12 | 327 | 1.6 | 3.2 | 0.00 | 2.36 | 0.00 | 91 | 1009.7 |
| 20260504001504 | 12 | 312 | 1.6 | 3.2 | 0.00 | 2.36 | 0.00 | 91 | 1010.0 |
| 20260504001004 | 12 | 286 | 0.0 | 1.6 | 0.00 | 2.36 | 0.00 | 91 | 1009.9 |
| 20260504000004 | 12 | 285 | 0.0 | 3.2 | 0.00 | 2.36 | 0.00 | 91 | 1009.7 |
| 20260503235504 | 12 | 273 | 0.0 | 3.2 | 0.00 | 2.36 | 0.00 | 91 | 1009.7 |
| 20260503235005 | 12 | 295 | 0.0 | 1.6 | 0.00 | 2.36 | 0.00 | 90 | 1009.8 |
| 20260503234504 | 12 | 232 | 0.0 | 1.6 | 0.00 | 2.36 | 0.00 | 90 | 1009.9 |
| 20260503233505 | 13 | 323 | 0.0 | 3.2 | 0.00 | 2.36 | 0.00 | 89 | 1009.6 |
| 20260503233005 | 13 | 323 | 1.6 | 3.2 | 0.00 | 2.36 | 0.00 | 89 | 1009.7 |
| 20260503232504 | 13 | 336 | 1.6 | 8.0 | 0.00 | 2.36 | 0.00 | 89 | 1009.8 |
| 20260503232005 | 13 | 305 | 1.6 | 8.0 | 0.00 | 2.36 | 0.00 | 88 | 1009.7 |
| 20260503231504 | 13 | 305 | 3.2 | 8.0 | 0.00 | 2.36 | 0.00 | 88 | 1009.9 |
| 20260503231005 | 13 | 308 | 3.2 | 9.7 | 0.00 | 2.36 | 0.00 | 88 | 1009.8 |
| 20260503230504 | 13 | 313 | 3.2 | 8.0 | 0.00 | 2.36 | 0.00 | 87 | 1009.8 |
| 20260503230004 | 13 | 315 | 3.2 | 8.0 | 1.17 | 2.36 | 1.17 | 87 | 1009.7 |
| 20260503225504 | 13 | 315 | 3.2 | 8.0 | 0.00 | 2.36 | 1.17 | 87 | 1009.7 |
| 20260503225005 | 13 | 317 | 1.6 | 8.0 | 0.00 | 2.36 | 1.17 | 87 | 1010.0 |
| 20260503224504 | 13 | 320 | 3.2 | 8.0 | 0.00 | 2.36 | 1.17 | 87 | 1009.7 |
| 20260503224004 | 14 | 302 | 0.0 | 8.0 | 0.00 | 2.36 | 1.17 | 86 | 1009.9 |
| 20260503223504 | 14 | 314 | 4.8 | 11.3 | 0.00 | 2.57 | 1.17 | 86 | 1009.8 |
| 20260503223004 | 14 | 325 | 3.2 | 4.8 | 0.00 | 2.57 | 1.17 | 86 | 1010.0 |
| 20260503222505 | 14 | 304 | 3.2 | 8.0 | 0.00 | 2.57 | 1.17 | 86 | 1010.0 |
| 20260503222004 | 14 | 298 | 4.8 | 9.7 | 0.00 | 2.57 | 1.17 | 86 | 1010.1 |
| 20260503221005 | 14 | 283 | 1.6 | 4.8 | 0.00 | 2.59 | 1.17 | 88 | 1009.9 |
| 20260503220504 | 14 | 276 | 0.0 | 3.2 | 0.00 | 2.59 | 1.17 | 88 | 1010.0 |
| 20260503220005 | 14 | 276 | 1.6 | 3.2 | 0.00 | 1.42 | 0.00 | 88 | 1009.8 |
| 20260503215504 | 14 | 330 | 0.0 | 3.2 | 0.00 | 1.42 | 1.17 | 88 | 1009.9 |